Location: Dehesa de la Cepeda
(40.6574°N, 4.3013°W)
Time: 09:41:05
(UTC+00:00)

Cosmos 1825 Rocket - Pass Details

Date: 05 July 2020
Orbit: 603 x 631 km, 82.5° (Epoch: 08 August)

Event Time Altitude Azimuth Distance (km) Brightness Sun altitude
Exits shadow 21:47:18 - 205° (SSW) 2,037 5.9 -17.2°
Reaches altitude 10° 21:47:26 10° 206° (SSW) 1,991 5.9 -17.2°
Maximum altitude 21:51:42 49° 281° (W) 817 4.4 -17.7°
Drops below altitude 10° 21:56:03 10° 356° (N) 2,017 7.0 -18.2°
Sets 21:58:22 0° 2° (N) 2,931 7.9 -18.4°
